Starlink 30978

operational
NORAD ID: 58490 Int'l Des: 2023-186 Owner: SPXS Country: US Constellation: starlink
LEOCIRCULAR

Über Starlink 30978

Beschreibung wird geladen...

Live-Position

3D-Globus wird geladen...

Nächste Überflüge

Höhenverlauf

Altitude vs Time

uPlot chart will show altitude changes over time

Zweizeiliger Elementsatz

1 58490U 23186T 25304.72473017 -.00001812 00000-0 -11912-3 0 9992
2 58490 43.0055 48.0495 0001792 279.7131 80.3509 15.02520611106447
Epoch: 31. Okt. 2025 • Age: 20 hours

Aktueller Status

Höhe 560.1 km
Geschwindigkeit 7.58 km/s
Subsatellitenpunkt -6.27°S, 11.49°W
Startdatum 3. Dez. 2023
Alter 1.9 years
Typ internet

Technische Details

Klassifizierung Payload
Masse 730.00 kg
Trockenmasse 700.00 kg
Gesamtmasse 730.00 kg
Länge 0.30 m
Durchmesser 4.10 m
Spannweite 29.00 m
Form Box + pan
Hersteller SPXS
Bus-Typ Starlink V2M
Phasenstatus In Orbit
Besitzer/Staat SPXS/US

Große Konstellationen

Loading constellations...